STARLINK-32253, 60733

Orbit data source: Space-Track

STARLINK-32253, 60733 is a payload satellite owned by SpaceX/Seattle (US) in LEO that was launched on Wed, 28 Aug 2024 UTC via an FALCON 9 launch vehicle from the Air Force Eastern Test Range (AFETR). Payload-class satellites include a variety of spacecraft equipped with specific instruments for various scientific and technological missions. These include communications satellites like Starlink; space stations such as the ISS; scientific satellites like the Hubble; Earth observation satellites from companies like Planet Labs, Umbra, and HawkEye 360; GPS; miniature CubeSats for education and research; and military/defense satellites.

Loading next visibility...
Identifier
60733, 2024-152P
Orbit
LEO
Country
Flag of USUS
Related business
Manufacturer
SpaceX/Seattle
Mission
Operational Commercial Communications
Bus & Motor
STARLINK V2M, Unknown motor
Mass
730 kg wet, ~700 kg dry
Launch date (UTC)
2024-08-28 (1 year ago)
Launch vehicle
FALCON 9
Launch site
Air Force Eastern Test Range (AFETR)
Object type
Payload
Rocket body
Debris
Shape & HBR
Box + 2 Pan, 14.5 m
Radar Cross Section
36.964 m², Large (>1 m²)

Expand to show TLE details & history
Last TLE update: 20 hours ago

TLE from 20 hours ago
0 STARLINK-32253
1 60733U 24152P   25260.48647212  .00001055  00000-0  47719-4 0  9995
2 60733  53.1610 352.8624 0001257  91.1618 268.9527 15.30211626 60280
Epoch: 2025-09-17T11:40Z
TLE epoch observation values (Epoch: 2025-09-17T11:40:31.191Z)
Latitude
0.00001°
Longitude
-178.92928°
Altitude
476.096 km
Speed
7.629 km/s
True Right ascension
23h 31m 26s
True Declination
0° 00' 00"
Sunlit
Object was in full shadow at epoch
Visualization orbit readout
Latitude
Unknown
Longitude
Unknown
Altitude
Unknown
Speed
Unknown
Apparent Right ascension
Unknown
Apparent Declination
Unknown
Sunlit
N/A
Visualization observer readout
Local Sidereal Time
00:49:09
Azimuth
Unknown
Elevation
Unknown
Doppler factor
Unknown
Orbital elements
Apogee altitude
476.298 km
Perigee altitude
474.575 km
Semi-major axis
6,853.574 km
Eccentricity
0.00013
Inclination
53.161°
RAAN
352.8624°
Arg. of periapsis
91.1618°
True anomaly
268.9383°
Mean anomaly
268.9527°
Eccentric anomaly
268.9455°
Mean motion
3.82532 °/min
Orbital period
94.11 mins
BSTAR
0.000047719
Loading maneuver chart data...
Computing Atmospheric mass density...
Loading historical data...
Loading historical data...
Loading historical data...
Loading historical data...
Loading historical data...
Loading historical data...
Loading historical data...

Documentation

Showing up to 5 results
|